Weather History for Central Park, NY

Change the Weather History Date:

Wednesday, July 4, 2012

  Actual Average Record
Temperature  
Mean Temperature 81 °F 76 °F  
Max Temperature 92 °F 84 °F 102 °F (1949)
Min Temperature 70 °F 68 °F 55 °F (1986)
Degree Days  
Heating Degree Days 0 0  
Month to date heating degree days 0 0  
Since 1 June heating degree days 15 19  
Since 1 July heating degree days 0 0  
Cooling Degree Days 16 11  
Month to date cooling degree days 65 43  
Year to date cooling degree days 381 324  
Since 1 June cooling degree days 266 255  
Growing Degree Days 30 (Base 50)    
Moisture  
Dew Point 66 °F    
Average Humidity 71    
Maximum Humidity 100    
Minimum Humidity 41    
Precipitation  
Precipitation 0.06 in 0.13 in 1.76 in (1981)
Month to date precipitation 0.06 0.50  
Year to date precipitation 17.53 24.70  
Snow  
Snow 0.00 in 0.00 in 0.00 in (2002)
Month to date snowfall 0.0 0.0  
Since 1 July snowfall 0.0 0.0  
Snow Depth 0.00 in    
Sea Level Pressure  
Sea Level Pressure 29.79 in    
Wind  
Wind Speed 4 mph (West)    
Max Wind Speed 12 mph    
Max Gust Speed 19 mph    
Visibility 9 miles    
Events Rain    
T = Trace of Precipitation, MM = Missing Value Source: NWS Daily Summary

Daily Weather History Graph

Daily Weather History Graph

Search for Another Location

Airport:

Trip Planner

Search our weather history database for the weather conditions in past years. The results will help you decide how hot, cold, wet, or windy it might be!

Date:

Astronomy

Jul. 04, 2012 Rise Set
Actual Time 5:30 AM EDT 8:30 PM EDT
Civil Twilight 4:56 AM EDT 9:03 PM EDT
Nautical Twilight 4:14 AM EDT 9:45 PM EDT
Astronomical Twilight 3:25 AM EDT 10:34 PM EDT
Moon 9:06 PM EDT (7/4) 6:30 AM EDT (7/4)
Length of Visible Light 16h 06m
Length of Day
15h 00m
Full, 99% of the Moon is Illuminated
Jul 4
Full
Jul 10
Last Quarter
Jul 19
New
Jul 26
First Quarter
Aug 1
Full

Hourly Weather History & Observations

Time (EDT) Temp. Heat Index Dew Point Humidity Pressure Visibility Wind Dir Wind Speed Gust Speed Precip Events Conditions
12:51 AM 80.1 °F 81.7 °F 64.0 °F 58% 29.82 in 10.0 mi Calm Calm - N/A   Clear
1:51 AM 80.1 °F 81.5 °F 63.0 °F 56% 29.82 in 10.0 mi Variable 5.8 mph - N/A   Mostly Cloudy
2:51 AM 81.0 °F 81.9 °F 62.1 °F 52% 29.81 in 10.0 mi WSW 9.2 mph - N/A   Overcast
3:51 AM 80.1 °F 81.2 °F 62.1 °F 54% 29.81 in 10.0 mi Variable 3.5 mph - N/A   Mostly Cloudy
4:51 AM 79.0 °F - 62.1 °F 56% 29.83 in 10.0 mi NW 8.1 mph - N/A   Scattered Clouds
5:51 AM 75.9 °F - 64.0 °F 67% 29.85 in 10.0 mi Variable 3.5 mph - 0.00 in   Overcast
6:51 AM 71.1 °F - 69.1 °F 93% 29.85 in 4.0 mi Calm Calm - 0.04 in Rain Light Rain
7:51 AM 70.0 °F - 69.1 °F 97% 29.84 in 2.5 mi Calm Calm - 0.02 in Rain Light Rain
8:51 AM 71.1 °F - 69.1 °F 93% 29.86 in 6.0 mi Variable 5.8 mph - 0.00 in   Overcast
9:51 AM 73.9 °F - 68.0 °F 82% 29.84 in 9.0 mi Variable 3.5 mph - N/A   Clear
10:51 AM 79.0 °F - 69.1 °F 72% 29.82 in 10.0 mi Variable 3.5 mph - N/A   Clear
11:51 AM 84.0 °F 87.0 °F 68.0 °F 58% 29.81 in 10.0 mi Calm Calm - N/A   Clear
12:51 PM 87.1 °F 89.9 °F 66.9 °F 51% 29.79 in 10.0 mi Variable 3.5 mph - N/A   Clear
1:51 PM 89.1 °F 92.1 °F 66.9 °F 48% 29.77 in 10.0 mi West 8.1 mph - N/A   Clear
2:51 PM 91.0 °F 93.8 °F 66.0 °F 44% 29.76 in 10.0 mi West 5.8 mph - N/A   Clear
3:51 PM 90.0 °F 92.4 °F 66.0 °F 45% 29.76 in 10.0 mi Variable 6.9 mph - N/A   Clear
4:51 PM 91.0 °F 93.8 °F 66.0 °F 44% 29.74 in 10.0 mi WSW 5.8 mph - N/A   Clear
5:51 PM 91.0 °F 92.6 °F 64.0 °F 41% 29.72 in 10.0 mi WNW 8.1 mph - N/A   Clear
6:51 PM 90.0 °F 91.7 °F 64.9 °F 43% 29.71 in 10.0 mi Calm Calm - N/A   Clear
7:51 PM 87.1 °F 89.9 °F 66.9 °F 51% 29.73 in 9.0 mi Variable 6.9 mph - N/A   Clear
8:51 PM 87.1 °F 89.9 °F 66.9 °F 51% 29.73 in 10.0 mi Calm Calm - N/A   Clear
9:51 PM 87.1 °F 89.9 °F 66.9 °F 51% 29.75 in 10.0 mi Calm Calm - N/A   Scattered Clouds
10:51 PM 86.0 °F 89.4 °F 68.0 °F 55% 29.74 in 9.0 mi Variable 4.6 mph - N/A   Clear
11:51 PM 84.9 °F 88.2 °F 68.0 °F 57% 29.73 in 9.0 mi Variable 3.5 mph - N/A   Clear